Time,TemperatureF,DewpointF,PressureIn,WindDirection,WindDirectionDegrees,WindSpeedMPH,WindSpeedGustMPH,Humidity,HourlyPrecipIn,Conditions,Clouds,dailyrainin,SoftwareType,DateUTC
2013-02-10 00:00:00,31.3,23.3,30.19,SE,135,1.1,1.1,72,0.00,,,0.00,WUHU21623XXSP,2013-02-10 05:00:00,
2013-02-10 00:05:00,31.3,23.3,30.19,ENE,67,0.0,1.1,72,0.00,,,0.00,WUHU21623XXSP,2013-02-10 05:05:00,
2013-02-10 00:10:00,31.3,23.3,30.19,East,90,0.7,0.7,72,0.00,,,0.00,WUHU21623XXSP,2013-02-10 05:10:00,
2013-02-10 00:15:00,31.1,23.1,30.19,ESE,112,2.0,2.0,72,0.00,,,0.00,WUHU21623XXSP,2013-02-10 05:15:00,
2013-02-10 00:20:00,31.1,23.1,30.19,ESE,112,2.0,2.0,72,0.00,,,0.00,WUHU21623XXSP,2013-02-10 05:20:00,
2013-02-10 00:25:00,30.9,22.9,30.19,SE,135,0.0,2.0,72,0.00,,,0.00,WUHU21623XXSP,2013-02-10 05:25:00,
2013-02-10 00:30:00,30.9,22.9,30.18,SE,135,1.8,1.8,72,0.00,,,0.00,WUHU21623XXSP,2013-02-10 05:30:00,
2013-02-10 00:35:00,30.9,22.9,30.18,SE,135,0.0,1.8,72,0.00,,,0.00,WUHU21623XXSP,2013-02-10 05:35:00,
2013-02-10 00:40:00,30.9,22.9,30.18,ESE,112,0.0,0.0,72,0.00,,,0.00,WUHU21623XXSP,2013-02-10 05:40:00,
2013-02-10 00:45:00,30.9,22.9,30.18,ESE,112,0.0,0.0,72,0.00,,,0.00,WUHU21623XXSP,2013-02-10 05:45:00,
2013-02-10 00:50:00,30.9,22.9,30.18,East,90,1.6,1.6,72,0.00,,,0.00,WUHU21623XXSP,2013-02-10 05:50:00,
2013-02-10 00:55:00,30.9,23.3,30.18,ESE,112,0.0,1.6,73,0.00,,,0.00,WUHU21623XXSP,2013-02-10 05:55:00,
2013-02-10 01:01:00,30.9,23.3,30.17,East,90,0.0,0.0,73,0.00,,,0.00,WUHU21623XXSP,2013-02-10 06:01:00,
2013-02-10 01:10:00,30.9,23.3,30.17,East,90,0.0,0.0,73,0.00,,,0.00,WUHU21623XXSP,2013-02-10 06:10:00,
2013-02-10 01:15:00,31.1,23.4,30.16,ENE,67,0.9,0.9,73,0.00,,,0.00,WUHU21623XXSP,2013-02-10 06:15:00,
2013-02-10 01:20:00,31.3,23.6,30.16,ENE,67,0.9,0.9,73,0.00,,,0.00,WUHU21623XXSP,2013-02-10 06:20:00,
2013-02-10 01:25:00,31.3,23.6,30.16,SE,135,0.0,0.9,73,0.00,,,0.00,WUHU21623XXSP,2013-02-10 06:25:00,
2013-02-10 01:30:00,31.3,23.6,30.16,ESE,112,3.8,3.8,73,0.00,,,0.00,WUHU21623XXSP,2013-02-10 06:30:00,
2013-02-10 01:35:00,31.3,23.6,30.16,ENE,67,2.0,3.8,73,0.00,,,0.00,WUHU21623XXSP,2013-02-10 06:35:00,
2013-02-10 01:40:00,31.3,23.6,30.16,ESE,112,0.0,3.8,73,0.00,,,0.00,WUHU21623XXSP,2013-02-10 06:40:00,
2013-02-10 01:45:00,31.3,23.6,30.16,SSE,157,0.0,1.3,73,0.00,,,0.00,WUHU21623XXSP,2013-02-10 06:45:00,
2013-02-10 01:50:00,31.3,23.6,30.16,ESE,112,0.0,1.3,73,0.00,,,0.00,WUHU21623XXSP,2013-02-10 06:50:00,
2013-02-10 01:55:00,31.3,23.6,30.16,ESE,112,0.0,0.0,73,0.00,,,0.00,WUHU21623XXSP,2013-02-10 06:55:00,
2013-02-10 02:00:00,31.3,23.6,30.16,East,90,0.0,0.0,73,0.00,,,0.00,WUHU21623XXSP,2013-02-10 07:00:00,
2013-02-10 02:05:00,31.3,23.6,30.16,East,90,0.0,0.0,73,0.00,,,0.00,WUHU21623XXSP,2013-02-10 07:05:00,
2013-02-10 02:10:00,31.3,23.6,30.16,East,90,0.0,0.0,73,0.00,,,0.00,WUHU21623XXSP,2013-02-10 07:10:00,
2013-02-10 02:15:00,31.3,23.6,30.15,East,90,0.0,0.0,73,0.00,,,0.00,WUHU21623XXSP,2013-02-10 07:15:00,
2013-02-10 02:20:00,31.3,23.6,30.14,ESE,112,0.0,0.0,73,0.00,,,0.00,WUHU21623XXSP,2013-02-10 07:20:00,
2013-02-10 02:25:00,31.5,23.8,30.14,East,90,0.0,0.0,73,0.00,,,0.00,WUHU21623XXSP,2013-02-10 07:25:00,
2013-02-10 02:30:00,31.6,24.0,30.15,SSE,157,1.8,1.8,73,0.00,,,0.00,WUHU21623XXSP,2013-02-10 07:30:00,
2013-02-10 02:35:00,31.6,24.0,30.15,SE,135,0.0,1.8,73,0.00,,,0.00,WUHU21623XXSP,2013-02-10 07:35:00,
2013-02-10 02:40:00,31.6,24.0,30.15,SE,135,0.0,1.8,73,0.00,,,0.00,WUHU21623XXSP,2013-02-10 07:40:00,
2013-02-10 02:45:00,31.6,24.0,30.15,ESE,112,0.0,0.0,73,0.00,,,0.00,WUHU21623XXSP,2013-02-10 07:45:00,
2013-02-10 02:50:00,31.6,24.0,30.15,ESE,112,0.0,0.0,73,0.00,,,0.00,WUHU21623XXSP,2013-02-10 07:50:00,
2013-02-10 02:55:00,31.6,24.0,30.14,South,180,0.0,0.0,73,0.00,,,0.00,WUHU21623XXSP,2013-02-10 07:55:00,
2013-02-10 03:00:00,31.6,24.0,30.15,SE,135,0.0,0.0,73,0.00,,,0.00,WUHU21623XXSP,2013-02-10 08:00:00,
2013-02-10 03:05:00,31.6,24.0,30.15,SE,135,0.0,0.0,73,0.00,,,0.00,WUHU21623XXSP,2013-02-10 08:05:00,
2013-02-10 03:10:00,31.6,24.0,30.15,SSE,157,0.0,0.0,73,0.00,,,0.00,WUHU21623XXSP,2013-02-10 08:10:00,
2013-02-10 03:15:00,31.8,23.8,30.15,SSE,150,1.5,1.6,72,0.00,,,0.00,WUHU21623XXSP,2013-02-10 08:15:00,
2013-02-10 03:21:00,31.8,23.8,30.15,SE,135,1.3,1.6,72,0.00,,,0.00,WUHU21623XXSP,2013-02-10 08:21:00,
2013-02-10 03:26:00,31.8,23.8,30.15,SE,135,0.0,1.3,72,0.00,,,0.00,WUHU21623XXSP,2013-02-10 08:26:00,
2013-02-10 03:31:00,32.2,24.2,30.15,South,180,0.0,0.0,72,0.00,,,0.00,WUHU21623XXSP,2013-02-10 08:31:00,
2013-02-10 03:36:00,32.2,24.2,30.15,South,180,0.0,0.0,72,0.00,,,0.00,WUHU21623XXSP,2013-02-10 08:36:00,
2013-02-10 03:42:00,32.2,24.2,30.14,WSW,247,2.5,2.5,72,0.00,,,0.00,WUHU21623XXSP,2013-02-10 08:42:00,
2013-02-10 03:47:00,32.2,24.2,30.14,SSE,157,0.0,2.5,72,0.00,,,0.00,WUHU21623XXSP,2013-02-10 08:47:00,
2013-02-10 03:52:00,32.2,24.2,30.14,SE,135,1.1,2.5,72,0.00,,,0.00,WUHU21623XXSP,2013-02-10 08:52:00,
2013-02-10 03:57:00,32.4,24.3,30.14,SSE,157,3.6,3.6,72,0.00,,,0.00,WUHU21623XXSP,2013-02-10 08:57:00,
2013-02-10 04:02:00,32.4,24.3,30.15,SSE,157,3.6,3.6,72,0.00,,,0.00,WUHU21623XXSP,2013-02-10 09:02:00,
2013-02-10 04:09:00,32.4,24.3,30.15,SSE,157,3.6,3.6,72,0.00,,,0.00,WUHU21623XXSP,2013-02-10 09:09:00,
2013-02-10 04:14:00,32.4,24.3,30.14,SE,135,0.0,3.6,72,0.00,,,0.00,WUHU21623XXSP,2013-02-10 09:14:00,
2013-02-10 04:19:00,32.4,24.3,30.14,SE,135,0.0,3.6,72,0.00,,,0.00,WUHU21623XXSP,2013-02-10 09:19:00,
2013-02-10 04:24:00,32.4,24.7,30.14,SSE,157,1.1,1.1,73,0.00,,,0.00,WUHU21623XXSP,2013-02-10 09:24:00,
2013-02-10 04:29:00,32.4,24.7,30.15,SSE,157,0.0,1.1,73,0.00,,,0.00,WUHU21623XXSP,2013-02-10 09:29:00,
2013-02-10 04:34:00,32.4,24.7,30.14,South,174,4.3,5.4,73,0.00,,,0.00,WUHU21623XXSP,2013-02-10 09:34:00,
2013-02-10 04:39:00,32.4,24.7,30.14,SSE,157,0.0,5.4,73,0.00,,,0.00,WUHU21623XXSP,2013-02-10 09:39:00,
2013-02-10 04:44:00,32.5,24.8,30.14,SSE,156,3.0,3.1,73,0.00,,,0.00,WUHU21623XXSP,2013-02-10 09:44:00,
2013-02-10 04:49:00,32.5,24.8,30.14,South,180,0.0,3.1,73,0.00,,,0.00,WUHU21623XXSP,2013-02-10 09:49:00,
2013-02-10 04:54:00,32.5,24.8,30.14,SSE,157,2.0,2.0,73,0.00,,,0.00,WUHU21623XXSP,2013-02-10 09:54:00,
2013-02-10 04:59:00,32.7,25.3,30.12,South,180,0.0,2.0,74,0.00,,,0.00,WUHU21623XXSP,2013-02-10 09:59:00,
2013-02-10 05:04:00,32.7,25.3,30.11,ENE,67,0.0,2.0,74,0.00,,,0.00,WUHU21623XXSP,2013-02-10 10:04:00,
2013-02-10 05:09:00,32.7,25.3,30.11,NE,45,0.0,0.0,74,0.00,,,0.00,WUHU21623XXSP,2013-02-10 10:09:00,
2013-02-10 05:14:00,32.5,25.1,30.12,SSE,157,2.2,2.2,74,0.00,,,0.00,WUHU21623XXSP,2013-02-10 10:14:00,
2013-02-10 05:19:00,32.5,25.5,30.11,West,270,1.6,2.2,75,0.00,,,0.00,WUHU21623XXSP,2013-02-10 10:19:00,
2013-02-10 05:24:00,32.4,25.3,30.11,SSW,202,0.0,1.6,75,0.00,,,0.00,WUHU21623XXSP,2013-02-10 10:24:00,
2013-02-10 05:29:00,32.4,25.3,30.11,East,90,1.6,1.6,75,0.00,,,0.00,WUHU21623XXSP,2013-02-10 10:29:00,
2013-02-10 05:34:00,32.4,25.6,30.10,SSE,157,4.5,4.5,76,0.00,,,0.00,WUHU21623XXSP,2013-02-10 10:34:00,
2013-02-10 05:39:00,32.5,25.8,30.11,SSE,157,0.0,4.5,76,0.00,,,0.00,WUHU21623XXSP,2013-02-10 10:39:00,
2013-02-10 05:44:00,32.5,25.8,30.11,SE,135,0.9,0.9,76,0.00,,,0.00,WUHU21623XXSP,2013-02-10 10:44:00,
2013-02-10 05:49:00,32.7,25.6,30.10,SSE,157,0.0,0.9,75,0.00,,,0.00,WUHU21623XXSP,2013-02-10 10:49:00,
2013-02-10 05:54:00,32.7,25.6,30.09,SE,135,0.0,0.0,75,0.00,,,0.00,WUHU21623XXSP,2013-02-10 10:54:00,
2013-02-10 05:59:00,32.7,25.6,30.09,ESE,112,0.0,0.0,75,0.00,,,0.00,WUHU21623XXSP,2013-02-10 10:59:00,
2013-02-10 06:04:00,32.7,25.6,30.10,SSE,157,0.0,0.0,75,0.00,,,0.00,WUHU21623XXSP,2013-02-10 11:04:00,
2013-02-10 06:09:00,32.7,25.6,30.10,SE,135,0.0,0.0,75,0.00,,,0.00,WUHU21623XXSP,2013-02-10 11:09:00,
2013-02-10 06:14:00,32.7,25.6,30.10,SW,225,0.0,0.0,75,0.00,,,0.00,WUHU21623XXSP,2013-02-10 11:14:00,
2013-02-10 06:19:00,32.7,26.0,30.10,SW,225,0.0,0.0,76,0.00,,,0.00,WUHU21623XXSP,2013-02-10 11:19:00,
2013-02-10 06:24:00,32.9,26.1,30.09,SE,135,0.0,0.0,76,0.00,,,0.00,WUHU21623XXSP,2013-02-10 11:24:00,
2013-02-10 06:29:00,32.9,26.1,30.09,SE,135,0.0,4.9,76,0.00,,,0.00,WUHU21623XXSP,2013-02-10 11:29:00,
2013-02-10 06:34:00,32.9,26.1,30.09,SE,135,0.0,4.9,76,0.00,,,0.00,WUHU21623XXSP,2013-02-10 11:34:00,
2013-02-10 06:39:00,33.1,26.3,30.09,SE,135,0.0,0.0,76,0.00,,,0.00,WUHU21623XXSP,2013-02-10 11:39:00,
2013-02-10 06:44:00,33.1,26.0,30.10,SSE,157,0.0,0.0,75,0.00,,,0.00,WUHU21623XXSP,2013-02-10 11:44:00,
2013-02-10 06:49:00,33.1,26.0,30.10,SE,135,2.2,2.2,75,0.00,,,0.00,WUHU21623XXSP,2013-02-10 11:49:00,
2013-02-10 06:54:00,33.3,26.1,30.10,SE,135,0.0,2.2,75,0.00,,,0.00,WUHU21623XXSP,2013-02-10 11:54:00,
2013-02-10 06:59:00,33.3,26.1,30.10,SE,135,0.0,2.2,75,0.00,,,0.00,WUHU21623XXSP,2013-02-10 11:59:00,
2013-02-10 07:04:00,33.3,26.1,30.10,SSE,157,0.0,0.0,75,0.00,,,0.00,WUHU21623XXSP,2013-02-10 12:04:00,
2013-02-10 07:09:00,33.3,26.4,30.10,ESE,112,0.0,0.0,76,0.00,,,0.00,WUHU21623XXSP,2013-02-10 12:09:00,
2013-02-10 07:14:00,33.3,26.4,30.10,ESE,112,0.0,0.0,76,0.00,,,0.00,WUHU21623XXSP,2013-02-10 12:14:00,
2013-02-10 07:19:00,33.3,26.4,30.10,SSE,157,0.0,0.0,76,0.00,,,0.00,WUHU21623XXSP,2013-02-10 12:19:00,
2013-02-10 07:24:00,33.3,26.4,30.10,SSE,157,1.1,1.1,76,0.00,,,0.00,WUHU21623XXSP,2013-02-10 12:24:00,
2013-02-10 07:29:00,33.3,26.4,30.10,SSE,157,0.0,1.1,76,0.00,,,0.00,WUHU21623XXSP,2013-02-10 12:29:00,
2013-02-10 07:35:00,33.3,26.4,30.10,SSE,157,0.0,0.9,76,0.00,,,0.00,WUHU21623XXSP,2013-02-10 12:35:00,
2013-02-10 07:40:00,33.3,26.4,30.09,South,180,0.0,0.9,76,0.00,,,0.00,WUHU21623XXSP,2013-02-10 12:40:00,
2013-02-10 07:45:00,33.1,26.3,30.08,SSE,157,0.0,0.0,76,0.00,,,0.00,WUHU21623XXSP,2013-02-10 12:45:00,
2013-02-10 07:50:00,33.1,26.6,30.08,ESE,112,0.0,0.0,77,0.00,,,0.00,WUHU21623XXSP,2013-02-10 12:50:00,
2013-02-10 07:55:00,33.1,26.6,30.08,SE,135,0.0,0.0,77,0.00,,,0.00,WUHU21623XXSP,2013-02-10 12:55:00,
2013-02-10 08:00:00,32.9,26.8,30.08,SSE,157,1.6,1.6,78,0.00,,,0.00,WUHU21623XXSP,2013-02-10 13:00:00,
2013-02-10 08:05:00,32.9,26.8,30.07,ESE,112,0.0,1.6,78,0.00,,,0.00,WUHU21623XXSP,2013-02-10 13:05:00,
2013-02-10 08:10:00,32.9,26.8,30.05,ESE,112,0.0,0.0,78,0.00,,,0.00,WUHU21623XXSP,2013-02-10 13:10:00,
2013-02-10 08:15:00,32.9,26.8,30.05,ESE,112,5.6,5.6,78,0.00,,,0.00,WUHU21623XXSP,2013-02-10 13:15:00,
2013-02-10 08:20:00,33.1,26.9,30.05,East,90,0.0,5.6,78,0.00,,,0.00,WUHU21623XXSP,2013-02-10 13:20:00,
2013-02-10 08:25:00,33.3,26.8,30.05,SW,225,0.0,0.0,77,0.00,,,0.00,WUHU21623XXSP,2013-02-10 13:25:00,
2013-02-10 08:30:00,33.4,26.9,30.05,SSE,157,0.0,0.0,77,0.00,,,0.00,WUHU21623XXSP,2013-02-10 13:30:00,
2013-02-10 08:35:00,33.6,26.8,30.05,SE,135,0.0,0.0,76,0.00,,,0.00,WUHU21623XXSP,2013-02-10 13:35:00,
2013-02-10 08:40:00,33.6,26.8,30.05,SSE,157,1.6,1.6,76,0.00,,,0.00,WUHU21623XXSP,2013-02-10 13:40:00,
2013-02-10 08:45:00,33.8,26.9,30.06,SSE,157,4.0,4.0,76,0.00,,,0.00,WUHU21623XXSP,2013-02-10 13:45:00,
2013-02-10 08:50:00,34.0,27.1,30.06,ESE,112,0.0,4.0,76,0.00,,,0.00,WUHU21623XXSP,2013-02-10 13:50:00,
2013-02-10 08:55:00,34.0,26.8,30.05,SSE,157,0.0,4.0,75,0.00,,,0.00,WUHU21623XXSP,2013-02-10 13:55:00,
2013-02-10 09:00:00,34.3,27.1,30.04,SE,135,0.0,0.7,75,0.00,,,0.00,WUHU21623XXSP,2013-02-10 14:00:00,
2013-02-10 09:05:00,34.3,27.1,30.05,South,180,3.8,3.8,75,0.00,,,0.00,WUHU21623XXSP,2013-02-10 14:05:00,
2013-02-10 09:10:00,34.5,27.0,30.05,SSE,157,4.9,4.9,74,0.00,,,0.00,WUHU21623XXSP,2013-02-10 14:10:00,
2013-02-10 09:15:00,34.9,27.0,30.06,SE,135,3.1,4.9,73,0.00,,,0.00,WUHU21623XXSP,2013-02-10 14:15:00,
2013-02-10 09:20:00,35.1,27.2,30.06,SSE,157,0.0,4.9,73,0.00,,,0.00,WUHU21623XXSP,2013-02-10 14:20:00,
2013-02-10 09:25:00,35.2,27.4,30.07,South,180,1.3,1.3,73,0.00,,,0.00,WUHU21623XXSP,2013-02-10 14:25:00,
2013-02-10 09:30:00,35.4,27.6,30.06,SSE,157,3.1,6.7,73,0.00,,,0.00,WUHU21623XXSP,2013-02-10 14:30:00,
2013-02-10 09:35:00,35.4,27.6,30.07,SSE,157,3.1,6.7,73,0.00,,,0.00,WUHU21623XXSP,2013-02-10 14:35:00,
2013-02-10 09:40:00,35.6,27.4,30.06,SSE,157,2.0,3.1,72,0.00,,,0.00,WUHU21623XXSP,2013-02-10 14:40:00,
2013-02-10 09:45:00,35.8,27.6,30.05,SSE,157,2.5,5.8,72,0.00,,,0.00,WUHU21623XXSP,2013-02-10 14:45:00,
2013-02-10 09:50:00,36.0,27.8,30.06,SE,135,0.0,5.8,72,0.00,,,0.00,WUHU21623XXSP,2013-02-10 14:50:00,
2013-02-10 09:55:00,36.0,27.8,30.05,SSE,157,2.9,2.9,72,0.00,,,0.00,WUHU21623XXSP,2013-02-10 14:55:00,
2013-02-10 10:00:00,36.0,27.8,30.05,SSE,157,2.2,2.9,72,0.00,,,0.00,WUHU21623XXSP,2013-02-10 15:00:00,
2013-02-10 10:05:00,36.0,27.8,30.05,South,181,1.4,2.9,72,0.00,,,0.00,WUHU21623XXSP,2013-02-10 15:05:00,
2013-02-10 10:10:00,36.0,27.8,30.05,SE,135,1.3,2.2,72,0.00,,,0.00,WUHU21623XXSP,2013-02-10 15:10:00,
2013-02-10 10:15:00,36.1,28.3,30.05,SE,135,3.8,3.8,73,0.00,,,0.00,WUHU21623XXSP,2013-02-10 15:15:00,
2013-02-10 10:20:00,36.1,28.3,30.05,SSE,149,3.0,3.8,73,0.00,,,0.00,WUHU21623XXSP,2013-02-10 15:20:00,
2013-02-10 10:25:00,36.1,28.3,30.05,ESE,112,0.0,3.8,73,0.00,,,0.00,WUHU21623XXSP,2013-02-10 15:25:00,
2013-02-10 10:30:00,36.3,28.5,30.04,SSE,157,0.0,2.9,73,0.00,,,0.00,WUHU21623XXSP,2013-02-10 15:30:00,
2013-02-10 10:35:00,36.3,28.5,30.03,SSE,157,2.9,2.9,73,0.00,,,0.00,WUHU21623XXSP,2013-02-10 15:35:00,
2013-02-10 10:40:00,36.7,29.2,30.03,SSE,157,4.5,4.5,74,0.00,,,0.00,WUHU21623XXSP,2013-02-10 15:40:00,
2013-02-10 10:45:00,36.9,29.3,30.03,SE,135,0.7,4.5,74,0.00,,,0.00,WUHU21623XXSP,2013-02-10 15:45:00,
2013-02-10 10:50:00,37.0,29.5,30.03,SE,135,2.2,2.2,74,0.00,,,0.00,WUHU21623XXSP,2013-02-10 15:50:00,
2013-02-10 10:55:00,37.0,29.8,30.02,SE,135,3.6,3.6,75,0.00,,,0.00,WUHU21623XXSP,2013-02-10 15:55:00,
2013-02-10 11:01:00,37.1,30.0,30.02,SSE,157,2.5,3.6,75,0.00,,,0.00,WUHU21623XXSP,2013-02-10 16:01:00,
2013-02-10 11:06:00,36.8,29.7,30.01,SSE,157,0.0,3.6,75,0.00,,,0.00,WUHU21623XXSP,2013-02-10 16:06:00,
2013-02-10 11:11:00,36.5,29.7,30.00,WSW,245,14.9,23.5,76,0.00,,,0.00,WUHU21623XXSP,2013-02-10 16:11:00,
2013-02-10 11:16:00,36.2,29.7,30.00,SE,135,6.9,23.5,77,0.00,,,0.00,WUHU21623XXSP,2013-02-10 16:16:00,
2013-02-10 11:21:00,36.3,29.8,29.99,SSE,157,3.1,6.9,77,0.00,,,0.00,WUHU21623XXSP,2013-02-10 16:21:00,
2013-02-10 11:26:00,36.2,29.7,29.99,SSE,153,1.0,3.1,77,0.00,,,0.00,WUHU21623XXSP,2013-02-10 16:26:00,
2013-02-10 11:31:00,36.0,29.5,29.99,SSE,157,0.0,1.6,77,0.00,,,0.00,WUHU21623XXSP,2013-02-10 16:31:00,
2013-02-10 11:36:00,36.1,29.6,29.98,SSW,202,0.0,0.4,77,0.00,,,0.00,WUHU21623XXSP,2013-02-10 16:36:00,
2013-02-10 11:41:00,36.0,29.6,29.97,SSE,151,3.6,4.3,77,0.00,,,0.00,WUHU21623XXSP,2013-02-10 16:41:00,
2013-02-10 11:46:00,35.8,29.3,29.97,SSE,157,0.0,4.3,77,0.00,,,0.00,WUHU21623XXSP,2013-02-10 16:46:00,
2013-02-10 11:51:00,35.8,29.3,29.97,SE,135,0.0,2.5,77,0.00,,,0.00,WUHU21623XXSP,2013-02-10 16:51:00,
2013-02-10 11:56:00,35.5,29.1,29.97,SSE,157,0.0,0.0,77,0.00,,,0.00,WUHU21623XXSP,2013-02-10 16:56:00,
2013-02-10 12:01:00,35.4,29.3,29.96,SSE,157,0.0,0.0,78,0.00,,,0.00,WUHU21623XXSP,2013-02-10 17:01:00,
2013-02-10 12:06:00,36.1,29.9,29.96,ESE,112,2.0,2.0,78,0.00,,,0.00,WUHU21623XXSP,2013-02-10 17:06:00,
2013-02-10 12:11:00,36.2,30.1,29.95,South,180,0.0,2.0,78,0.00,,,0.00,WUHU21623XXSP,2013-02-10 17:11:00,
2013-02-10 12:16:00,36.5,30.3,29.95,SE,135,4.3,4.3,78,0.00,,,0.00,WUHU21623XXSP,2013-02-10 17:16:00,
2013-02-10 12:21:00,36.6,30.5,29.95,South,180,2.9,4.3,78,0.00,,,0.00,WUHU21623XXSP,2013-02-10 17:21:00,
2013-02-10 12:26:00,37.1,30.6,29.94,South,180,0.0,4.3,77,0.00,,,0.00,WUHU21623XXSP,2013-02-10 17:26:00,
2013-02-10 12:31:00,37.1,30.6,29.93,SSE,157,2.9,2.9,77,0.00,,,0.00,WUHU21623XXSP,2013-02-10 17:31:00,
2013-02-10 12:36:00,37.4,30.9,29.93,SE,135,0.0,2.9,77,0.00,,,0.00,WUHU21623XXSP,2013-02-10 17:36:00,
2013-02-10 12:41:00,37.2,30.4,29.92,South,180,0.2,2.9,76,0.00,,,0.00,WUHU21623XXSP,2013-02-10 17:41:00,
2013-02-10 12:46:00,37.4,30.6,29.92,SE,135,7.6,7.6,76,0.00,,,0.00,WUHU21623XXSP,2013-02-10 17:46:00,
2013-02-10 12:51:00,37.4,30.3,29.92,SSE,157,4.4,7.6,75,0.00,,,0.00,WUHU21623XXSP,2013-02-10 17:51:00,
2013-02-10 12:56:00,37.3,30.1,29.92,SSW,202,2.9,7.6,75,0.00,,,0.00,WUHU21623XXSP,2013-02-10 17:56:00,
2013-02-10 13:01:00,37.2,29.7,29.92,East,90,1.3,3.8,74,0.00,,,0.00,WUHU21623XXSP,2013-02-10 18:01:00,
2013-02-10 13:06:00,37.3,29.8,29.91,SE,135,0.0,2.9,74,0.00,,,0.00,WUHU21623XXSP,2013-02-10 18:06:00,
2013-02-10 13:11:00,37.1,29.7,29.91,SE,140,3.5,5.4,74,0.00,,,0.00,WUHU21623XXSP,2013-02-10 18:11:00,
2013-02-10 13:16:00,37.0,29.5,29.91,SSE,157,4.7,5.4,74,0.00,,,0.00,WUHU21623XXSP,2013-02-10 18:16:00,
2013-02-10 13:21:00,37.1,29.3,29.90,ESE,112,5.4,5.4,73,0.00,,,0.00,WUHU21623XXSP,2013-02-10 18:21:00,
2013-02-10 13:26:00,37.0,29.2,29.90,South,180,0.0,5.4,73,0.00,,,0.00,WUHU21623XXSP,2013-02-10 18:26:00,
2013-02-10 13:31:00,37.1,29.3,29.90,SE,135,0.0,1.1,73,0.00,,,0.00,WUHU21623XXSP,2013-02-10 18:31:00,
2013-02-10 13:36:00,37.0,29.3,29.90,SSE,157,7.6,7.6,73,0.00,,,0.00,WUHU21623XXSP,2013-02-10 18:36:00,
2013-02-10 13:41:00,37.2,29.4,29.90,SE,135,3.8,7.6,73,0.00,,,0.00,WUHU21623XXSP,2013-02-10 18:41:00,
2013-02-10 13:46:00,37.2,29.4,29.90,SSW,202,1.3,7.4,73,0.00,,,0.00,WUHU21623XXSP,2013-02-10 18:46:00,
2013-02-10 13:51:00,37.2,29.4,29.90,WSW,247,2.7,7.4,73,0.00,,,0.00,WUHU21623XXSP,2013-02-10 18:51:00,
2013-02-10 13:56:00,37.1,29.3,29.89,SE,135,1.3,2.7,73,0.00,,,0.00,WUHU21623XXSP,2013-02-10 18:56:00,
2013-02-10 14:01:00,37.1,29.3,29.90,SSE,157,1.3,2.9,73,0.00,,,0.00,WUHU21623XXSP,2013-02-10 19:01:00,
2013-02-10 14:06:00,37.1,29.3,29.89,SSE,157,1.8,2.9,73,0.00,,,0.00,WUHU21623XXSP,2013-02-10 19:06:00,
2013-02-10 14:11:00,36.9,29.1,29.89,SE,143,2.8,3.6,73,0.00,,,0.00,WUHU21623XXSP,2013-02-10 19:11:00,
2013-02-10 14:16:00,37.3,29.5,29.88,SE,135,6.5,6.5,73,0.00,,,0.00,WUHU21623XXSP,2013-02-10 19:16:00,
2013-02-10 14:21:00,37.5,29.7,29.87,SE,135,1.8,6.5,73,0.00,,,0.00,WUHU21623XXSP,2013-02-10 19:21:00,
2013-02-10 14:26:00,37.6,29.8,29.87,SSE,157,1.6,6.5,73,0.00,,,0.00,WUHU21623XXSP,2013-02-10 19:26:00,
2013-02-10 14:31:00,38.1,30.2,29.87,SSE,157,3.4,3.4,73,0.00,,,0.00,WUHU21623XXSP,2013-02-10 19:31:00,
2013-02-10 14:36:00,38.4,30.5,29.86,SE,135,2.5,3.4,73,0.00,,,0.00,WUHU21623XXSP,2013-02-10 19:36:00,
2013-02-10 14:41:00,38.6,30.4,29.86,SSE,157,3.2,5.4,72,0.00,,,0.00,WUHU21623XXSP,2013-02-10 19:41:00,
2013-02-10 14:46:00,38.9,30.7,29.86,SE,135,0.0,5.4,72,0.00,,,0.00,WUHU21623XXSP,2013-02-10 19:46:00,
2013-02-10 14:51:00,39.0,30.8,29.85,SSE,157,2.0,5.1,72,0.00,,,0.00,WUHU21623XXSP,2013-02-10 19:51:00,
2013-02-10 14:56:00,39.3,31.1,29.85,South,180,0.0,2.0,72,0.00,,,0.00,WUHU21623XXSP,2013-02-10 19:56:00,
2013-02-10 15:01:00,39.3,31.1,29.85,SE,135,3.6,3.6,72,0.00,,,0.00,WUHU21623XXSP,2013-02-10 20:01:00,
2013-02-10 15:06:00,39.5,31.2,29.85,SE,135,3.6,3.6,72,0.00,,,0.00,WUHU21623XXSP,2013-02-10 20:06:00,
2013-02-10 15:11:00,39.4,31.6,29.85,SSE,157,2.9,3.6,73,0.00,,,0.00,WUHU21623XXSP,2013-02-10 20:11:00,
2013-02-10 15:16:00,39.5,32.0,29.84,SSW,202,1.3,2.9,74,0.00,,,0.00,WUHU21623XXSP,2013-02-10 20:16:00,
2013-02-10 15:21:00,39.7,32.2,29.85,South,180,1.6,2.9,74,0.00,,,0.00,WUHU21623XXSP,2013-02-10 20:21:00,
2013-02-10 15:26:00,39.5,32.3,29.85,SE,140,1.2,1.6,75,0.00,,,0.00,WUHU21623XXSP,2013-02-10 20:26:00,
2013-02-10 15:31:00,39.5,32.3,29.84,South,180,0.0,1.6,75,0.00,,,0.00,WUHU21623XXSP,2013-02-10 20:31:00,
2013-02-10 15:36:00,39.6,33.0,29.83,SE,135,6.0,6.0,77,0.00,,,0.00,WUHU21623XXSP,2013-02-10 20:36:00,
2013-02-10 15:41:00,39.7,33.1,29.82,SSE,157,1.3,6.0,77,0.00,,,0.00,WUHU21623XXSP,2013-02-10 20:41:00,
2013-02-10 15:46:00,39.7,33.5,29.81,SSE,157,2.5,6.0,78,0.00,,,0.00,WUHU21623XXSP,2013-02-10 20:46:00,
2013-02-10 15:51:00,39.8,33.5,29.81,SSW,202,2.5,2.5,78,0.00,,,0.00,WUHU21623XXSP,2013-02-10 20:51:00,
2013-02-10 15:56:00,39.8,33.9,29.81,ESE,120,2.2,4.9,79,0.00,,,0.00,WUHU21623XXSP,2013-02-10 20:56:00,
2013-02-10 16:01:00,39.9,34.2,29.80,SSE,157,2.7,4.9,80,0.00,,,0.00,WUHU21623XXSP,2013-02-10 21:01:00,
2013-02-10 16:06:00,40.2,34.5,29.79,East,90,1.8,2.7,80,0.00,,,0.00,WUHU21623XXSP,2013-02-10 21:06:00,
2013-02-10 16:11:00,40.3,34.7,29.79,SSE,157,2.7,2.7,80,0.00,,,0.00,WUHU21623XXSP,2013-02-10 21:11:00,
2013-02-10 16:16:00,40.6,35.0,29.78,South,180,0.0,2.7,80,0.00,,,0.00,WUHU21623XXSP,2013-02-10 21:16:00,
2013-02-10 16:21:00,40.9,35.5,29.78,SE,137,1.2,2.7,81,0.00,,,0.00,WUHU21623XXSP,2013-02-10 21:21:00,
2013-02-10 16:26:00,41.2,35.8,29.79,SSE,157,0.2,2.2,81,0.00,,,0.00,WUHU21623XXSP,2013-02-10 21:26:00,
2013-02-10 16:31:00,41.5,36.1,29.78,SSE,157,3.4,6.9,81,0.00,,,0.00,WUHU21623XXSP,2013-02-10 21:31:00,
2013-02-10 16:36:00,41.9,36.5,29.77,SSE,167,3.4,6.9,81,0.00,,,0.00,WUHU21623XXSP,2013-02-10 21:36:00,
2013-02-10 16:41:00,42.4,37.0,29.77,SSE,157,2.9,6.0,81,0.00,,,0.00,WUHU21623XXSP,2013-02-10 21:41:00,
2013-02-10 16:46:00,42.7,37.3,29.77,ENE,67,0.9,2.9,81,0.00,,,0.00,WUHU21623XXSP,2013-02-10 21:46:00,
2013-02-10 16:51:00,43.0,37.6,29.77,South,180,3.4,5.1,81,0.00,,,0.00,WUHU21623XXSP,2013-02-10 21:51:00,
2013-02-10 16:56:00,43.3,37.9,29.77,SSE,157,6.5,6.5,81,0.00,,,0.00,WUHU21623XXSP,2013-02-10 21:56:00,
2013-02-10 17:01:00,43.7,38.2,29.77,South,180,3.4,6.9,81,0.00,,,0.00,WUHU21623XXSP,2013-02-10 22:01:00,
2013-02-10 17:06:00,43.7,38.2,29.76,East,90,0.9,6.9,81,0.00,,,0.00,WUHU21623XXSP,2013-02-10 22:06:00,
2013-02-10 17:11:00,43.9,38.4,29.76,SSW,202,3.4,3.4,81,0.00,,,0.00,WUHU21623XXSP,2013-02-10 22:11:00,
2013-02-10 17:16:00,43.9,38.1,29.75,SSE,157,8.3,8.3,80,0.00,,,0.00,WUHU21623XXSP,2013-02-10 22:16:00,
2013-02-10 17:21:00,43.9,38.1,29.74,SSE,157,13.6,13.6,80,0.00,,,0.00,WUHU21623XXSP,2013-02-10 22:21:00,
2013-02-10 17:26:00,43.9,38.1,29.74,SSE,157,13.6,13.6,80,0.00,,,0.00,WUHU21623XXSP,2013-02-10 22:26:00,
2013-02-10 17:31:00,44.2,38.5,29.74,South,180,6.9,13.6,80,0.00,,,0.00,WUHU21623XXSP,2013-02-10 22:31:00,
2013-02-10 17:36:00,44.2,38.5,29.74,South,180,6.9,6.9,80,0.00,,,0.00,WUHU21623XXSP,2013-02-10 22:36:00,
2013-02-10 17:41:00,44.4,38.7,29.74,SE,135,0.0,6.9,80,0.00,,,0.00,WUHU21623XXSP,2013-02-10 22:41:00,
2013-02-10 17:46:00,44.6,38.8,29.73,SE,135,1.6,6.9,80,0.00,,,0.00,WUHU21623XXSP,2013-02-10 22:46:00,
2013-02-10 17:51:00,44.8,39.0,29.73,ESE,112,7.4,7.4,80,0.00,,,0.00,WUHU21623XXSP,2013-02-10 22:51:00,
2013-02-10 17:56:00,45.0,39.2,29.73,SSE,157,8.1,8.1,80,0.00,,,0.00,WUHU21623XXSP,2013-02-10 22:56:00,
2013-02-10 18:01:00,45.0,38.9,29.73,South,180,1.3,8.1,79,0.00,,,0.00,WUHU21623XXSP,2013-02-10 23:01:00,
2013-02-10 18:06:00,45.1,39.0,29.73,ESE,112,6.5,8.1,79,0.00,,,0.00,WUHU21623XXSP,2013-02-10 23:06:00,
2013-02-10 18:11:00,45.1,39.0,29.72,South,180,8.3,8.3,79,0.00,,,0.00,WUHU21623XXSP,2013-02-10 23:11:00,
2013-02-10 18:16:00,45.3,39.2,29.73,SSE,168,6.5,8.3,79,0.00,,,0.00,WUHU21623XXSP,2013-02-10 23:16:00,
2013-02-10 18:21:00,45.3,39.2,29.73,South,181,5.3,8.3,79,0.00,,,0.00,WUHU21623XXSP,2013-02-10 23:21:00,
2013-02-10 18:26:00,45.5,39.4,29.72,SW,225,4.7,6.0,79,0.00,,,0.00,WUHU21623XXSP,2013-02-10 23:26:00,
2013-02-10 18:31:00,45.5,39.4,29.72,SSE,154,11.3,13.4,79,0.00,,,0.00,WUHU21623XXSP,2013-02-10 23:31:00,
2013-02-10 18:43:00,45.7,39.6,29.72,SSE,157,5.1,5.1,79,0.00,,,0.00,WUHU21623XXSP,2013-02-10 23:43:00,
2013-02-10 18:48:00,45.7,39.6,29.72,SE,145,3.2,7.2,79,0.00,,,0.00,WUHU21623XXSP,2013-02-10 23:48:00,
2013-02-10 18:53:00,45.7,39.6,29.72,South,180,2.7,7.2,79,0.00,,,0.00,WUHU21623XXSP,2013-02-10 23:53:00,
2013-02-10 18:58:00,45.7,39.6,29.73,SSW,193,1.9,2.7,79,0.00,,,0.00,WUHU21623XXSP,2013-02-10 23:58:00,
2013-02-10 19:03:00,45.7,39.6,29.73,SE,135,2.0,2.7,79,0.00,,,0.00,WUHU21623XXSP,2013-02-11 00:03:00,
2013-02-10 19:08:00,45.7,39.6,29.73,ESE,122,2.0,2.7,79,0.00,,,0.00,WUHU21623XXSP,2013-02-11 00:08:00,
2013-02-10 19:13:00,45.7,39.9,29.72,SSE,157,1.1,2.7,80,0.00,,,0.00,WUHU21623XXSP,2013-02-11 00:13:00,
2013-02-10 19:18:00,45.7,40.2,29.72,SE,135,5.4,9.8,81,0.00,,,0.00,WUHU21623XXSP,2013-02-11 00:18:00,
2013-02-10 19:23:00,45.7,40.2,29.72,SSE,157,3.8,9.8,81,0.00,,,0.00,WUHU21623XXSP,2013-02-11 00:23:00,
2013-02-10 19:28:00,45.9,40.4,29.72,SSE,157,3.8,5.4,81,0.00,,,0.00,WUHU21623XXSP,2013-02-11 00:28:00,
2013-02-10 19:33:00,45.9,40.4,29.73,SSE,157,1.8,3.8,81,0.00,,,0.00,WUHU21623XXSP,2013-02-11 00:33:00,
2013-02-10 19:38:00,46.0,40.9,29.72,SSE,157,1.8,1.8,82,0.00,,,0.00,WUHU21623XXSP,2013-02-11 00:38:00,
2013-02-10 19:43:00,46.0,40.9,29.72,SSE,157,0.0,1.8,82,0.00,,,0.00,WUHU21623XXSP,2013-02-11 00:43:00,
2013-02-10 19:48:00,46.0,40.9,29.72,SE,136,4.8,5.1,82,0.00,,,0.00,WUHU21623XXSP,2013-02-11 00:48:00,
2013-02-10 19:53:00,46.0,40.9,29.72,SE,135,0.0,5.1,82,0.00,,,0.00,WUHU21623XXSP,2013-02-11 00:53:00,
2013-02-10 19:58:00,46.2,41.4,29.72,SSE,157,2.5,2.5,83,0.00,,,0.00,WUHU21623XXSP,2013-02-11 00:58:00,
2013-02-10 20:03:00,46.2,41.4,29.72,SE,135,1.1,2.5,83,0.00,,,0.00,WUHU21623XXSP,2013-02-11 01:03:00,
2013-02-10 20:08:00,46.2,41.4,29.72,South,180,3.4,3.4,83,0.00,,,0.00,WUHU21623XXSP,2013-02-11 01:08:00,
2013-02-10 20:13:00,46.4,41.6,29.72,SSW,206,1.5,3.4,83,0.00,,,0.00,WUHU21623XXSP,2013-02-11 01:13:00,
2013-02-10 20:18:00,46.6,41.7,29.72,WSW,247,6.9,6.9,83,0.00,,,0.00,WUHU21623XXSP,2013-02-11 01:18:00,
2013-02-10 20:23:00,46.8,42.2,29.72,ESE,112,3.4,6.9,84,0.00,,,0.00,WUHU21623XXSP,2013-02-11 01:23:00,
2013-02-10 20:28:00,46.9,42.4,29.72,South,180,3.6,6.9,84,0.00,,,0.00,WUHU21623XXSP,2013-02-11 01:28:00,
2013-02-10 20:33:00,46.9,42.4,29.72,SSW,199,8.1,8.9,84,0.00,,,0.00,WUHU21623XXSP,2013-02-11 01:33:00,
2013-02-10 20:38:00,46.9,42.4,29.72,SE,135,0.0,8.9,84,0.00,,,0.00,WUHU21623XXSP,2013-02-11 01:38:00,
2013-02-10 20:43:00,46.9,42.4,29.72,NE,45,0.0,2.9,84,0.00,,,0.00,WUHU21623XXSP,2013-02-11 01:43:00,
2013-02-10 20:48:00,46.9,42.7,29.73,SSW,200,5.2,5.6,85,0.00,,,0.00,WUHU21623XXSP,2013-02-11 01:48:00,
2013-02-10 20:53:00,46.9,42.7,29.72,SSE,149,1.9,5.6,85,0.00,,,0.00,WUHU21623XXSP,2013-02-11 01:53:00,
2013-02-10 20:58:00,46.9,42.7,29.72,SSW,213,3.1,8.9,85,0.00,,,0.00,WUHU21623XXSP,2013-02-11 01:58:00,
2013-02-10 21:03:00,46.8,42.5,29.72,SSE,157,1.6,8.9,85,0.00,,,0.00,WUHU21623XXSP,2013-02-11 02:03:00,
2013-02-10 21:08:00,46.8,42.8,29.72,SSE,157,1.6,1.8,86,0.00,,,0.00,WUHU21623XXSP,2013-02-11 02:08:00,
2013-02-10 21:13:00,46.6,42.6,29.72,SW,225,7.2,7.2,86,0.00,,,0.00,WUHU21623XXSP,2013-02-11 02:13:00,
2013-02-10 21:18:00,46.6,42.6,29.72,SW,225,2.5,7.2,86,0.00,,,0.00,WUHU21623XXSP,2013-02-11 02:18:00,
2013-02-10 21:23:00,46.6,42.6,29.72,SW,225,2.5,7.2,86,0.00,,,0.00,WUHU21623XXSP,2013-02-11 02:23:00,
2013-02-10 21:28:00,46.6,42.6,29.73,WSW,247,0.0,2.5,86,0.00,,,0.00,WUHU21623XXSP,2013-02-11 02:28:00,
2013-02-10 21:33:00,46.6,42.6,29.73,SSE,157,0.0,2.5,86,0.00,,,0.00,WUHU21623XXSP,2013-02-11 02:33:00,
2013-02-10 21:38:00,46.6,42.6,29.73,SSW,202,0.2,0.2,86,0.00,,,0.00,WUHU21623XXSP,2013-02-11 02:38:00,
2013-02-10 21:43:00,46.6,42.9,29.72,South,180,0.4,0.4,87,0.00,,,0.00,WUHU21623XXSP,2013-02-11 02:43:00,
2013-02-10 21:48:00,46.6,42.9,29.72,SE,135,2.9,3.4,87,0.00,,,0.00,WUHU21623XXSP,2013-02-11 02:48:00,
2013-02-10 21:53:00,46.6,42.9,29.71,South,180,1.1,3.4,87,0.00,,,0.00,WUHU21623XXSP,2013-02-11 02:53:00,
2013-02-10 21:58:00,46.6,42.9,29.71,SSW,202,0.0,2.9,87,0.00,,,0.00,WUHU21623XXSP,2013-02-11 02:58:00,
2013-02-10 22:03:00,46.2,42.6,29.70,South,180,1.6,1.6,87,0.00,,,0.00,WUHU21623XXSP,2013-02-11 03:03:00,
2013-02-10 22:08:00,46.2,42.6,29.70,WNW,292,0.7,1.6,87,0.00,,,0.00,WUHU21623XXSP,2013-02-11 03:08:00,
2013-02-10 22:13:00,46.2,42.6,29.70,SSE,157,1.3,1.3,87,0.00,,,0.00,WUHU21623XXSP,2013-02-11 03:13:00,
2013-02-10 22:19:00,46.2,42.6,29.69,SSE,157,1.8,1.8,87,0.00,,,0.00,WUHU21623XXSP,2013-02-11 03:19:00,
2013-02-10 22:24:00,46.2,42.6,29.69,SSE,157,0.0,1.8,87,0.00,,,0.00,WUHU21623XXSP,2013-02-11 03:24:00,
2013-02-10 22:29:00,46.2,42.9,29.69,South,180,1.6,1.8,88,0.00,,,0.00,WUHU21623XXSP,2013-02-11 03:29:00,
2013-02-10 22:34:00,46.2,42.9,29.69,SE,135,4.5,4.5,88,0.00,,,0.00,WUHU21623XXSP,2013-02-11 03:34:00,
2013-02-10 22:39:00,46.2,42.9,29.69,SSE,157,5.6,5.6,88,0.00,,,0.00,WUHU21623XXSP,2013-02-11 03:39:00,
2013-02-10 22:44:00,46.2,42.9,29.69,SE,135,2.9,5.6,88,0.00,,,0.00,WUHU21623XXSP,2013-02-11 03:44:00,
2013-02-10 22:49:00,46.2,42.9,29.69,SSE,157,6.3,6.3,88,0.00,,,0.00,WUHU21623XXSP,2013-02-11 03:49:00,
2013-02-10 22:54:00,46.2,42.9,29.69,SSE,157,0.0,6.3,88,0.00,,,0.00,WUHU21623XXSP,2013-02-11 03:54:00,
2013-02-10 22:59:00,46.2,42.9,29.68,SW,225,0.0,0.0,88,0.00,,,0.00,WUHU21623XXSP,2013-02-11 03:59:00,
2013-02-10 23:04:00,46.2,42.9,29.68,SSE,157,1.8,1.8,88,0.00,,,0.00,WUHU21623XXSP,2013-02-11 04:04:00,
2013-02-10 23:09:00,46.2,42.9,29.68,SSE,157,0.0,1.8,88,0.00,,,0.00,WUHU21623XXSP,2013-02-11 04:09:00,
2013-02-10 23:14:00,46.2,42.9,29.68,SE,135,0.9,1.8,88,0.00,,,0.00,WUHU21623XXSP,2013-02-11 04:14:00,
2013-02-10 23:19:00,46.2,42.9,29.68,NE,45,0.0,0.9,88,0.00,,,0.00,WUHU21623XXSP,2013-02-11 04:19:00,
2013-02-10 23:24:00,46.2,42.9,29.68,SSE,157,0.0,1.3,88,0.00,,,0.00,WUHU21623XXSP,2013-02-11 04:24:00,
2013-02-10 23:29:00,46.2,42.9,29.68,SSW,202,0.0,1.6,88,0.00,,,0.00,WUHU21623XXSP,2013-02-11 04:29:00,
2013-02-10 23:34:00,46.2,42.9,29.68,SSE,157,0.0,1.6,88,0.00,,,0.00,WUHU21623XXSP,2013-02-11 04:34:00,
2013-02-10 23:39:00,46.2,42.9,29.68,SSE,157,1.1,1.1,88,0.00,,,0.00,WUHU21623XXSP,2013-02-11 04:39:00,
2013-02-10 23:44:00,46.0,42.7,29.67,SSE,157,0.0,1.1,88,0.00,,,0.00,WUHU21623XXSP,2013-02-11 04:44:00,
2013-02-10 23:49:00,46.2,42.9,29.67,SSE,157,2.7,2.7,88,0.00,,,0.00,WUHU21623XXSP,2013-02-11 04:49:00,
2013-02-10 23:54:00,46.2,42.9,29.67,SSE,157,0.0,2.7,88,0.00,,,0.00,WUHU21623XXSP,2013-02-11 04:54:00,
2013-02-10 23:59:00,46.2,42.9,29.67,South,188,3.4,4.7,88,0.00,,,0.00,WUHU21623XXSP,2013-02-11 04:59:00,